ABS-4 (MOBISAT-1)

Last updated on Jan. 29, 2020, 4:37 a.m. UTC

1 28184U 04007A   20028.79873047  .00000040  00000-0  00000-0 0  9995
2 28184   0.1999  98.2449 0005268 214.9854 162.7714  1.00271331 28964
UTC
Height (km)
Latitude
Longitude
Inclination
Orbital Period
UTC large
Height (km)
Speed (km/s)
/
Latitude / Longitude
Inclination (degrees)
Orbital Period (minutes)
Azimuth
Elevation
Range (km)
Doppler Factor
iOS Compass Heading
iOS Angle

Next 30 passes for location: Hong Kong

Rise time Rise Azimuth (degrees) Set time Set Azimuth (degrees) Duration Max altitude (degrees)

No matching passes for this satellites